Regional Weather Roundup
Issued by NWS

Home | Current Version | Previous Version | Graphics & Text | Print | Product List | Glossary On
Versions: 1 2 3 4 5 6 7 8 9 10 11 12 13 14 15 16 17 18 19 20 21 22 23 24 25 26 27 28 29 30 31 32 33 34 35 36 37 38 39 40 41 42 43 44 45 46 47 48 49 50
000
ASUS45 KTFX 192004
RWRMT
MONTANA HOURLY WEATHER ROUNDUP
NATIONAL WEATHER SERVICE GREAT FALLS MT
204 PM MDT FRI SEP 19 2014

NOTE: "FAIR" INDICATES FEW OR NO CLOUDS BELOW 12000 FEET WITH NO
SIGNIFICANT WEATHER AND/OR OBSTRUCTIONS TO VISIBILITY.

* THESE STATIONS ARE NOT UNDER NWS QUALITY CONTROL. THEY DO NOT
   REPORT WEATHER SUCH AS PRECIPITATION OR FOG.

MTZ001>007-043-192100-
WEST OF THE DIVIDE
CITY           SKY/WX    TMP DP  RH WIND       PRES   REMARKS
KALISPELL      CLOUDY    72  45  38 W13G20    29.99R
MISSOULA       CLOUDY    70  45  41 W13       30.06S
BUTTE          CLOUDY    64  39  40 W14G20    30.10S
MULLAN PASS    CLOUDY    48  45  89 VRB5      30.18R
* ESSEX        N/A       57  53  87 N/A        N/A
* LINCOLN      N/A       67  43  42 SW9G19     N/A
* LOOKOUT PASS N/A       56  46  69 SE8G16     N/A
* POLSON       N/A       74  46  37 NW5G11     N/A
* RONAN APT    PTCLDY    70  46  42 N/A        N/A
* SEELEY LAKE  N/A       63  44  50 NW4G10     N/A
* THOMP F APT  SUNNY     67  47  49 S7G14      N/A
$$

MTZ008-052>055-192100-
SOUTHWEST MONTANA
CITY           SKY/WX    TMP DP  RH WIND       PRES   REMARKS
BOZEMAN        SUNNY     72  43  35 W8G20     30.01F
DILLON         SUNNY     73  37  27 W21G28    30.06F
W YELLOWSTONE  PTSUNNY   64  46  52 SW15G20   30.14F
* THREE FORKS  SUNNY     73  63  71 W9         N/A
* BOULDER HILL N/A       65  38  37 S12G24     N/A
* MONIDA PASS  N/A       67  40  37 W5         N/A
* RAYNOLDS PAS N/A       65  53  65 W11G18     N/A
* WHITEHALL    N/A       74  41  31 W15G22     N/A
* WISE RIVER   N/A       64  40  41 W14G20     N/A
$$

MTZ009>010-012-014-046-048-049-054-192100-
EAST SLOPES AND CENTRAL MONTANA
CITY           SKY/WX    TMP DP  RH WIND       PRES   REMARKS
CUT BANK       SUNNY     72  43  35 W30G41    29.90R
GREAT FALLS    PTCLDY    73  43  34 SW28G35   29.91S
HELENA         CLOUDY    73  41  32 W20G26    30.00R
MALMSTROM AFB  SUNNY     73  43  34 W23G28    29.92S
* CONRAD       PTCLDY    73  48  41 W22G29     N/A
* EAST GLACIER N/A       62  44  52 W15G31     N/A
* MONARCH      N/A       63  41  45 W20G29     N/A
* PENDROY      N/A       70  47  44 NW19G26    N/A
* ROGERS PASS  N/A       63  41  45 E11G22     N/A
* SAINT MARY   N/A       63  44  50 S11G29     N/A
* SWEET GRASS  N/A       70  39  32 NW16G26    N/A
$$

MTZ011-013-016-021-035-040-045-047-050-051-192100-
NORTH CENTRAL MONTANA
CITY           SKY/WX    TMP DP  RH WIND       PRES   REMARKS
HAVRE          PTCLDY    79  43  28 NW13G23   29.81S
LEWISTOWN      PTCLDY    70  43  38 NW20G29   29.93S
* CHESTER      N/A       72  40  31 NW13G20    N/A
* DENTON       N/A       73  45  37 W14G20     N/A
* GEYSER       N/A       68  45  44 W24G31     N/A
* JUDITH GAP   N/A       67  46  47 NW12G17    N/A
* LOMA         N/A       74  44  34 W18        N/A
$$

MTZ017>020-022>027-061-062-192100-
NORTHEAST MONTANA
CITY           SKY/WX    TMP DP  RH WIND       PRES   REMARKS
GLASGOW        PTCLDY    75  50  42 W12       29.75F
GLENDIVE       SUNNY     75  48  39 W21G29    29.78S
JORDAN         CLOUDY    75  46  36 W20G29    29.80F
SIDNEY         PTCLDY    79  50  36 W17G25    29.72R
WOLF POINT     PTCLDY    79  52  39 W13       29.73S
* BEAVER HILL  N/A       76  47  36 SW26G34    N/A
* CIRCLE       N/A       76  51  42 W15G22     N/A
* LINDSAY DVD  N/A       74  47  38 W24G34     N/A
* NAVAJO       N/A       65  54  68 NW11       N/A
$$

MTZ028>042-056>058-192100-
SOUTHCENTRAL AND SOUTHEAST MONTANA
CITY           SKY/WX    TMP DP  RH WIND       PRES   REMARKS
BAKER          PTCLDY    79  48  34 W21G29    29.80F
BILLINGS       PTSUNNY   77  45  32 NW21      29.90F
LIVINGSTON     SUNNY     73  45  37 W24G31    29.98F
MILES CITY     PTSUNNY   77  46  33 NW24      29.83R
* LAUREL APT   PTCLDY    79  43  28 NW13G22    N/A
* ROUNDUP APT  PTSUNNY   73  45  37 SW15G23    N/A
* ALZADA       N/A       79  47  32 W11G17     N/A
* HYSHAM       N/A       71  42  35 W8G14      N/A
* LAME DEER    N/A       69  44  41 W15G22     N/A
* REED POINT   N/A       76  42  30 W18G28     N/A
* ROSCOE HILL  N/A       71  37  29 E10        N/A
$$

REGIONAL REPORTS...DAKOTAS
CITY           SKY/WX    TMP DP  RH WIND       PRES   REMARKS
WILLISTON      PTCLDY    79  48  34 NW18G33   29.68R
DICKINSON      PTCLDY    77  48  36 W26G35    29.72S
BEACH          N/A       75  46  36 W23G30    29.77S
CROSBY         SUNNY     73  54  51 NW18G32   29.67R
TIOGA          SUNNY     73  50  44 NW22G30   29.69R
WATFORD CITY   SUNNY     77  48  36 W16G29    29.66R
BISMARCK       SUNNY     84  46  26 W21G29    29.65S
GRAND FORKS    PTCLDY    79  66  65 S13       29.51F
FARGO          CLOUDY    77  64  64 S15       29.57F
BUFFALO SD     SUNNY     81  46  29 W22G28    29.75S
RAPID CITY     PTSUNNY   82  50  33 N12       29.82F
$$

REGIONAL REPORTS...WYOMING/IDAHO/WASHINGTON
CITY           SKY/WX    TMP DP  RH WIND       PRES   REMARKS
GILLETTE       SUNNY     77  46  33 NW8G18    29.93S
SHERIDAN       SUNNY     77  50  39 N9G23     29.92F
CODY           SUNNY    N/A N/A N/A N/A        N/A
YELLOWSTONE LA SUNNY     61  39  44 VRB6      30.22F
SALMON         SUNNY     72  43  35 CALM      30.04F
MULLAN PASS    CLOUDY    48  45  89 VRB5      30.18S
SAND POINT     PTSUNNY   70  50  49 W3        30.05R
SPOKANE        PTSUNNY   72  48  43 W13       30.06S

$$



USA.gov is the U.S. government's official web portal to all federal, state and local government web resources and services.